Regional Weather Roundup
Issued by NWS Goodland, KS

Home | Current Version | Previous Version | Text Only | Print | Product List | Glossary Off
Versions: 1 2 3 4 5 6 7 8 9 10 11 12 13 14 15 16 17 18 19 20 21 22 23 24 25 26 27 28 29 30 31 32 33 34 35 36 37 38 39 40 41 42 43 44 45 46 47 48 49 50

000
ASUS43 KGLD 170508
RWRGLD

GOODLAND FORECAST AREA HOURLY WEATHER ROUNDUP
NATIONAL WEATHER SERVICE GOODLAND KS
1100 PM MDT WED AUG 16 2017

...OFFICIAL OBSERVATIONS...

CITY           SKY/WX    TMP DP  RH WIND       PRES   REMARKS
GOODLAND KS    CLEAR     58  55  90 N6        30.08S
HILL CITY KS   CLEAR     63  61  93 SW3       30.02R
IMPERIAL NEB   CLEAR     60  54  80 W3        30.05S
MCCOOK NEB     CLEAR     60  59  96 W7        30.02R
AKRON CO       CLEAR     60  51  72 SE5       30.14F
BURLINGTON CO  CLEAR     57  54  89 SW5       30.12R
LIMON CO       CLOUDY    53  50  89 CALM      30.19S
$$

...UNOFFICIAL OBSERVATIONS...

CITY           SKY/WX    TMP DP  RH WIND       PRES   REMARKS
LENORA KS        N/A     63  32  31 CALM        N/A
NORTON KS      CLEAR     61  55  82 W6        30.00S
TRENTON NEB      N/A     61  32  33 CALM        N/A
KIT CARSON CO    N/A     61  53  75 CALM        N/A
YUMA CO        FAIR      54  52  94 CALM      30.11F
$$




USA.gov is the U.S. government's official web portal to all federal, state and local government web resources and services.